Tracking 18980 objects as of 23-Feb-2018
HD Live streaming from Space Station
objects crossing your sky now

NOAA 16 DEB

Track NOAA 16 DEB now!
10-day predictions


NORAD ID: 42426
Int'l Code: 2000-055TW
Perigee: 854.1 km
Apogee: 878.0 km
Inclination: 98.8 °
Period: 102.1 minutes
Semi major axis: 7237 km
RCS: Unknown
Launch date: September 21, 2000
Source: United States (US)
Launch site: AIR FORCE WESTERN TEST RANGE (AFWTR)

Note: This is SATELLITE DEBRIS
aabbcc
Your satellite tracking list
Your tracking list is empty




NASA's NSSDC Master Catalog

Two Line Element Set (TLE):
1 42426U 00055TW  18044.38851634 +.00000618 +00000-0 +37375-3 0  9996
2 42426 098.7792 108.5234 0016548 209.1651 150.8597 14.10130122077647
Source of the keplerian elements: AFSPC